Clarksville, TN

10:42 PM CST on December 10, 2017 (GMT -0600)
Outlaw

Weather History for KCKV - April, 2013

Change the Weather History Date:

Tuesday, April 16, 2013

  Actual Average Record
Temperature  
Mean Temperature 74 °F 58 °F  
Max Temperature 81 °F 70 °F 92 °F (1955)
Min Temperature 66 °F 45 °F 29 °F (1980)
Degree Days  
Heating Degree Days 0    
Month to date heating degree days 140  
Since 1 July heating degree days 3751  
Cooling Degree Days 9    
Month to date cooling degree days 28  
Year to date cooling degree days  
Growing Degree Days 22 (Base 50)    
Moisture  
Dew Point 64 °F    
Average Humidity 72    
Maximum Humidity 81    
Minimum Humidity 62    
Precipitation  
Precipitation 0.00 in 0.13 in 1.36 in (1982)
Month to date precipitation 2.14 1.89  
Year to date precipitation 13.44  
Sea Level Pressure  
Sea Level Pressure 30.05 in    
Wind  
Wind Speed 8 mph (South)    
Max Wind Speed 15 mph    
Max Gust Speed 21 mph    
Visibility 10 miles    
Events Thunderstorm    
T = Trace of Precipitation, MM = Missing Value Source: NWS Daily Summary

Daily Weather History Graph

Daily Weather History Graph

Search for Another Location

Airport or City:

Trip Planner

Search our weather history database for the weather conditions in past years. The results will help you decide how hot, cold, wet, or windy it might be!

Date:

Astronomy

Apr. 16, 2013 Rise Set
Actual Time 6:14 AM CDT 7:25 PM CDT
Civil Twilight 5:47 AM CDT 7:51 PM CDT
Nautical Twilight 5:15 AM CDT 8:23 PM CDT
Astronomical Twilight 4:42 AM CDT 8:57 PM CDT
Moon 10:36 AM CDT (4/16) 12:17 AM CDT (4/16)
Length of Visible Light 14h 04m
Length of Day
13h 10m
Waxing Crescent, 33% of the Moon is Illuminated
Apr 16
Waxing Crescent
Apr 18
First Quarter
Apr 25
Full
May 2
Last Quarter
May 9
New

Hourly Weather History & Observations

Time (CDT) Temp. Dew Point Humidity Pressure Visibility Wind Dir Wind Speed Gust Speed Precip Events Conditions
12:52 AM 68.0 °F 59.0 °F 73% 29.96 in 10.0 mi South 8.1 mph - N/A   Clear
1:52 AM 66.9 °F 59.0 °F 76% 29.95 in 10.0 mi South 10.4 mph - N/A   Clear
2:52 AM 66.0 °F 59.0 °F 78% 29.96 in 10.0 mi South 9.2 mph 17.3 mph N/A   Clear
3:52 AM 66.0 °F 59.0 °F 78% 29.98 in 10.0 mi South 8.1 mph - N/A   Clear
4:34 AM 66.2 °F 60.8 °F 83% 30.00 in 10.0 mi South 10.4 mph - N/A   Mostly Cloudy
4:52 AM 66.9 °F 60.1 °F 79% 30.00 in 10.0 mi South 11.5 mph - N/A   Mostly Cloudy
5:52 AM 66.9 °F 60.1 °F 79% 30.03 in 10.0 mi South 10.4 mph - N/A   Scattered Clouds
6:52 AM 68.0 °F 61.0 °F 78% 30.07 in 10.0 mi South 8.1 mph - N/A   Overcast
7:52 AM 69.1 °F 62.1 °F 78% 30.09 in 10.0 mi SSW 8.1 mph - N/A   Overcast
8:52 AM 70.0 °F 63.0 °F 78% 30.09 in 10.0 mi South 9.2 mph - N/A   Overcast
9:52 AM 72.0 °F 64.0 °F 76% 30.09 in 10.0 mi South 8.1 mph - N/A   Overcast
10:52 AM 73.0 °F 64.9 °F 76% 30.10 in 10.0 mi SSE 6.9 mph - N/A   Overcast
11:52 AM 73.9 °F 64.9 °F 73% 30.09 in 10.0 mi South 11.5 mph - N/A   Overcast
12:52 PM 77.0 °F 66.0 °F 69% 30.08 in 10.0 mi SSW 10.4 mph - N/A   Mostly Cloudy
1:34 PM 77.0 °F 66.2 °F 69% 30.08 in 10.0 mi SW 9.2 mph 17.3 mph N/A   Overcast
1:52 PM 78.1 °F 66.0 °F 66% 30.06 in 10.0 mi SW 8.1 mph - N/A   Overcast
2:52 PM 79.0 °F 66.0 °F 64% 30.05 in 10.0 mi SSW 13.8 mph - N/A   Mostly Cloudy
3:52 PM 79.0 °F 64.9 °F 62% 30.04 in 10.0 mi SSW 10.4 mph - N/A   Mostly Cloudy
4:52 PM 78.1 °F 66.0 °F 66% 30.04 in 10.0 mi South 6.9 mph - N/A   Clear
5:52 PM 78.1 °F 66.0 °F 66% 30.03 in 10.0 mi SSE 8.1 mph - N/A   Partly Cloudy
6:52 PM 75.9 °F 66.0 °F 71% 30.06 in 10.0 mi SE 4.6 mph - N/A   Partly Cloudy
7:52 PM 75.0 °F 66.0 °F 73% 30.06 in 10.0 mi SSE 4.6 mph - N/A   Partly Cloudy
8:52 PM 73.9 °F 66.0 °F 76% 30.07 in 10.0 mi SSE 9.2 mph - N/A   Partly Cloudy
9:11 PM 73.4 °F 66.2 °F 78% 30.09 in 10.0 mi SE 5.8 mph - N/A Thunderstorm Partly Cloudy
9:26 PM 71.6 °F 66.2 °F 83% 30.10 in 10.0 mi SE 4.6 mph - N/A   Scattered Clouds
9:52 PM 73.9 °F 66.0 °F 76% 30.08 in 10.0 mi South 3.5 mph - N/A   Mostly Cloudy
10:52 PM 73.0 °F 66.0 °F 79% 30.07 in 10.0 mi South 5.8 mph - N/A   Clear
11:52 PM 71.1 °F 64.9 °F 81% 30.07 in 10.0 mi Calm Calm - N/A   Clear